Location: Unspecified
(0.0000°N, 0.0000°E)
Time: 12:13:10
(UTC+00:00)

Explorer 11/Cluster Stage 4 - Pass Details

Date: 28 November 2019
Orbit: 467 x 1259 km, 28.8° (Epoch: 10 December)

Event Time Altitude Azimuth Distance (km) Brightness Sun altitude
Rises 12:45:27 0° 260° (W) 2,958 9.8 64.5°
Reaches altitude 10° 12:48:22 10° 274° (W) 1,914 8.9 64.1°
Maximum altitude 12:51:51 23° 328° (NNW) 1,146 7.6 63.6°
Drops below altitude 10° 12:54:58 10° 22° (NNE) 1,680 8.1 63.1°
Sets 12:57:20 0° 38° (NE) 2,507 8.9 62.8°
